AMAZONAS 3

Last updated on Thu Oct 30 2025 00:02:49 GMT+0000 (Coordinated Universal Time)

1 39078U 13006A 25302.37144389 -.00000272 00000+0 00000+0 0 9998 2 39078 0.0263 230.8420 0005511 347.5324 252.3070 1.00268342 42606
UTC large
Height (km)
Speed (km/s)
/
Latitude / Longitude
Inclination (degrees)
Orbital Period (minutes)
Azimuth
Elevation
Range (km)
Doppler Factor

Next 0 passes for location: London (51.5072 / 0.1276)

Sorry there are no passes over London.